Flag for Austria Weather for the Past 2 Weeks in Waidhofen an der Thaya, Lower Austria, Austria

Now
39 °F

Passing clouds.


Feels Like: 37 °F
Forecast: 30 / 45 °F
Wind: 3 mph from North

Location: Tulln Airport

Current Time: Feb 14, 2016 at 12:59:03 AM

Latest Report: Feb 13, 2016 at 9:50 PM


Visibility: 19 mi

Pressure: 29.30 "Hg (27.53 "Hg at 506m altitude)

Humidity: 87%

Dew point: 36 °F

Location of Waidhofen an der ThayaLocation

Historic Weather in Waidhofen an der Thaya — Graph

°F

Waidhofen an der Thaya Temperature Yesterday

Maximum temperature yesterday: 46 °F (at 2:50 PM)
Minimum temperature yesterday: 34 °F (at 5:50 AM)
Average temperature yesterday: 40 °F

High & Low Weather Summary for the Past Weeks

 TemperatureHumidityPressure
High57 °F (Feb 9, 3:50 PM)100% (Jan 30, 6:50 AM)30.39 "Hg (Jan 30, 6:50 AM)
Low27 °F (Feb 12, 4:50 AM)48% (Feb 9, 3:50 PM)29.30 "Hg (Feb 9, 8:50 PM)
Average43 °F76%29.88 "Hg
* Reported Jan 29 9:50 PM — Feb 13 9:50 PM, Waidhofen an der Thaya, Weather by CustomWeather, © 2016

Note: Actual official high and low records may vary slightly from our data, if they occured in-between our weather recording intervals... More about our weather records

Advertising

Waidhofen an der Thaya Weather History for the Previous 24 Hours

 ConditionsComfort  
Time TempWeatherWind HumidityBarometerVisibility
9:50 PM
Sat, Feb 13
39 °FPassing clouds.3 mph87%29.30 "Hg19 mi
8:50 PM41 °FPassing clouds.13 mph81%29.30 "Hg19 mi
6:50 PM41 °FPartly cloudy.12 mph76%29.33 "Hg19 mi
5:50 PM39 °FPassing clouds.6 mph81%29.36 "Hg19 mi
4:50 PM43 °FPartly sunny.15 mph71%29.36 "Hg37 mi
3:50 PM46 °FScattered clouds.2 mph62%29.36 "Hg19 mi
2:50 PM46 °FPassing clouds.5 mph62%29.36 "Hg19 mi
1:50 PM45 °FScattered clouds.3 mph61%29.39 "Hg19 mi
12:50 PM41 °FBroken clouds.3 mph70%29.39 "Hg19 mi
11:50 AM43 °FBroken clouds.3 mph71%29.42 "Hg19 mi
10:50 AM39 °FPartly sunny.3 mph81%29.42 "Hg16 mi
9:50 AM37 °FPassing clouds.2 mph81%29.42 "Hg16 mi
8:50 AM34 °FPartly sunny.3 mph93%29.42 "Hg11 mi
7:50 AM34 °FOvercast.1 mph93%29.42 "Hg11 mi
6:50 AM34 °FPassing clouds.6 mph93%29.45 "Hg9 mi
5:50 AM34 °FPassing clouds.3 mph93%29.42 "Hg9 mi
Weather by CustomWeather, © 2016

See weather overviewHow to use our weather pages